User: anonymous   Login
Location: Barrialito
(10.3588°N, 66.9747°W)
Time: 19:49:41
(UTC+00:00)
Language:

SL-27 R/B - Orbit

View from above orbital plane
View from above orbital plane
View from above satellite
View from above satellite

Ground track
Ground track

The orbit data is extracted from the following two-line orbital elements,

1 40354U 14084B   22144.11567690  .00007277  00000-0  15895-3 0  9995
2 40354  74.7390   5.8526 0035617 198.6986 161.2923 15.43618630417242
Epoch (UTC): 24 May 2022 02:46:34
Eccentricity: 0.0035617
inclination: 74.7390°
perigee height: 411 km
apogee height: 460 km
right ascension of ascending node: 5.8526°
argument of perigee: 198.6986°
revolutions per day: 15.43618630
mean anomaly at epoch: 161.2923°
orbit number at epoch: 41724

The dashed part of the orbit path shows where the satellite is in the earth's shadow,  

DLR